sat.trackr.live / text

‹ back to catalog

TACSAT 6

NORAD 39473 · 2013-072M

PAYLOAD ACTIVE UNKNOWN

§ Identity

Operator
Country
US
Launch date
2013-12-06
Launch site
AFWTR
Launch vehicle
Mass (kg)
RCS (m²)

External: N2YO · Heavens-Above · Gunter

§ Orbital elements

Epoch: 2026-05-24T22:56:46.650336Z

Period
92.39 min
Inclination
120.4645°
Eccentricity
0.0072407
Mean motion
15.58604552 rev/d
Perigee alt
342.7 km
Apogee alt
440.7 km
Semi-major
6,769.8 km
B*
9.6507e-4
RAAN
39.3910°
Arg perigee
30.3538°
Mean anomaly
330.1720°
Rev number
11,573

§ Raw data

TACSAT 61 39473U 13072M   26144.95609549  .00085322  00000+0  96507-3 0  99922 39473 120.4645  39.3910 0072407  30.3538 330.1720 15.58604552115731

JSON: /api/v1/satellites/39473 · /tle

For live sub-satellite position, see the globe view (requires WebGL).

§ Visibility from observer

Set your observer location to see the next 7 days of passes ≥ 10°. The values pass through the URL so the page stays shareable.

No JS? Fill the form by hand. The geolocation button needs JavaScript.